When you browse on this site, cookies collect data to enhance your experience and personalize the content and advertising you see.
Visit our Privacy Policy to learn more. By continuing to use the site, you agree to this use of cookies and data.

Meteo pe oră la Ramadi

Astăzi, 11 August, Marţi

Timp Temperatura Precipitaţii Vânt Presiune Umiditate
00:00 +34°C° 0 mm 3 m/s 747 mmHg 24%
01:00 +33°C° 0 mm 4 m/s 747 mmHg 25%
02:00 +33°C° 0 mm 4 m/s 746 mmHg 26%
03:00 +32°C° 0 mm 5 m/s 746 mmHg 27%
04:00 +32°C° 0 mm 5 m/s 747 mmHg 34%
05:00 +30°C° 0 mm 6 m/s 747 mmHg 40%
06:00 +30°C° 0 mm 6 m/s 748 mmHg 46%
07:00 +32°C° 0 mm 7 m/s 748 mmHg 42%
08:00 +34°C° 0 mm 7 m/s 748 mmHg 38%
09:00 +35°C° 0 mm 8 m/s 748 mmHg 34%
10:00 +38°C° 0 mm 7 m/s 748 mmHg 30%
11:00 +40°C° 0 mm 6 m/s 748 mmHg 26%
12:00 +42°C° 0 mm 5 m/s 748 mmHg 21%
13:00 +43°C° 0 mm 5 m/s 747 mmHg 19%
14:00 +43°C° 0 mm 5 m/s 746 mmHg 17%
15:00 +45°C° 0 mm 5 m/s 746 mmHg 15%
16:00 +45°C° 0 mm 5 m/s 746 mmHg 15%
17:00 +43°C° 0 mm 5 m/s 745 mmHg 15%
18:00 +43°C° 0 mm 4 m/s 745 mmHg 16%
19:00 +41°C° 0 mm 4 m/s 745 mmHg 19%
20:00 +37°C° 0 mm 3 m/s 746 mmHg 23%
21:00 +35°C° 0 mm 3 m/s 746 mmHg 26%
22:00 +35°C° 0 mm 3 m/s 746 mmHg 26%
23:00 +34°C° 0 mm 3 m/s 746 mmHg 26%

Mâine, 12 August, Miercuri

Timp Temperatura Precipitaţii Vânt Presiune Umiditate
00:00 +34°C° 0 mm 3 m/s 746 mmHg 25%
01:00 +34°C° 0 mm 3 m/s 746 mmHg 26%
02:00 +33°C° 0 mm 4 m/s 745 mmHg 26%
03:00 +33°C° 0 mm 5 m/s 745 mmHg 27%
04:00 +33°C° 0 mm 5 m/s 746 mmHg 33%
05:00 +32°C° 0 mm 5 m/s 746 mmHg 40%
06:00 +30°C° 0 mm 6 m/s 746 mmHg 47%
07:00 +33°C° 0 mm 6 m/s 746 mmHg 43%
08:00 +35°C° 0 mm 6 m/s 747 mmHg 39%
09:00 +36°C° 0 mm 7 m/s 747 mmHg 34%
10:00 +39°C° 0 mm 6 m/s 747 mmHg 30%
11:00 +41°C° 0 mm 6 m/s 746 mmHg 25%
12:00 +43°C° 0 mm 5 m/s 746 mmHg 21%
13:00 +45°C° 0 mm 5 m/s 746 mmHg 19%
14:00 +46°C° 0 mm 5 m/s 745 mmHg 17%
15:00 +47°C° 0 mm 4 m/s 744 mmHg 16%
16:00 +45°C° 0 mm 4 m/s 744 mmHg 16%
17:00 +45°C° 0 mm 3 m/s 744 mmHg 16%
18:00 +44°C° 0 mm 3 m/s 744 mmHg 16%
19:00 +41°C° 0 mm 2 m/s 744 mmHg 19%
20:00 +38°C° 0 mm 2 m/s 745 mmHg 21%
21:00 +35°C° 0 mm 1 m/s 745 mmHg 24%
22:00 +36°C° 0 mm 2 m/s 745 mmHg 24%
23:00 +36°C° 0 mm 2 m/s 745 mmHg 23%

Poimâine, 13 August, Joi

Timp Temperatura Precipitaţii Vânt Presiune Umiditate
00:00 +36°C° 0 mm 3 m/s 745 mmHg 23%
01:00 +36°C° 0 mm 3 m/s 745 mmHg 24%
02:00 +35°C° 0 mm 4 m/s 745 mmHg 25%
03:00 +35°C° 0 mm 4 m/s 745 mmHg 26%
04:00 +35°C° 0 mm 5 m/s 745 mmHg 27%
05:00 +34°C° 0 mm 5 m/s 745 mmHg 29%
06:00 +33°C° 0 mm 5 m/s 745 mmHg 30%
07:00 +35°C° 0 mm 6 m/s 746 mmHg 28%
08:00 +38°C° 0 mm 6 m/s 746 mmHg 26%
09:00 +40°C° 0 mm 6 m/s 746 mmHg 24%
10:00 +42°C° 0 mm 6 m/s 746 mmHg 21%
11:00 +43°C° 0 mm 5 m/s 746 mmHg 18%
12:00 +46°C° 0 mm 5 m/s 745 mmHg 16%
13:00 +47°C° 0 mm 5 m/s 745 mmHg 14%
14:00 +48°C° 0 mm 5 m/s 744 mmHg 13%
15:00 +48°C° 0 mm 5 m/s 744 mmHg 11%
16:00 +48°C° 0 mm 5 m/s 743 mmHg 12%
17:00 +47°C° 0 mm 4 m/s 743 mmHg 12%
18:00 +45°C° 0 mm 4 m/s 743 mmHg 12%
19:00 +43°C° 0 mm 3 m/s 743 mmHg 15%
20:00 +39°C° 0 mm 3 m/s 743 mmHg 18%
21:00 +36°C° 0 mm 2 m/s 744 mmHg 21%
22:00 +36°C° 0 mm 2 m/s 744 mmHg 21%
23:00 +36°C° 0 mm 2 m/s 743 mmHg 21%

14 August, Vineri

Timp Temperatura Precipitaţii Vânt Presiune Umiditate
00:00 +36°C° 0 mm 3 m/s 743 mmHg 21%
01:00 +35°C° 0 mm 3 m/s 743 mmHg 21%
02:00 +35°C° 0 mm 3 m/s 743 mmHg 21%
03:00 +34°C° 0 mm 4 m/s 743 mmHg 20%
04:00 +33°C° 0 mm 4 m/s 743 mmHg 22%
05:00 +33°C° 0 mm 4 m/s 743 mmHg 24%
06:00 +32°C° 0 mm 4 m/s 743 mmHg 26%
07:00 +35°C° 0 mm 5 m/s 744 mmHg 24%
08:00 +37°C° 0 mm 5 m/s 744 mmHg 21%
09:00 +40°C° 0 mm 6 m/s 744 mmHg 19%
10:00 +44°C° 0 mm 6 m/s 744 mmHg 16%
11:00 +46°C° 0 mm 6 m/s 744 mmHg 14%
12:00 +49°C° 0 mm 7 m/s 744 mmHg 11%
13:00 +50°C° 0 mm 7 m/s 743 mmHg 10%
14:00 +50°C° 0 mm 8 m/s 742 mmHg 9%
15:00 +51°C° 0 mm 8 m/s 742 mmHg 9%
16:00 +50°C° 0 mm 7 m/s 742 mmHg 9%
17:00 +48°C° 0 mm 6 m/s 741 mmHg 10%
18:00 +47°C° 0 mm 5 m/s 741 mmHg 11%
19:00 +45°C° 0 mm 5 m/s 741 mmHg 11%
20:00 +42°C° 0 mm 5 m/s 742 mmHg 12%
21:00 +40°C° 0 mm 5 m/s 742 mmHg 13%
22:00 +39°C° 0 mm 5 m/s 742 mmHg 14%
23:00 +37°C° 0 mm 5 m/s 742 mmHg 14%

15 August, Sâmbătă

Timp Temperatura Precipitaţii Vânt Presiune Umiditate
00:00 +37°C° 0 mm 5 m/s 742 mmHg 15%
01:00 +36°C° 0 mm 5 m/s 742 mmHg 17%
02:00 +35°C° 0 mm 5 m/s 742 mmHg 18%
03:00 +34°C° 0 mm 5 m/s 742 mmHg 20%
04:00 +33°C° 0 mm 5 m/s 742 mmHg 21%
05:00 +33°C° 0 mm 5 m/s 742 mmHg 22%
06:00 +32°C° 0 mm 5 m/s 742 mmHg 24%
07:00 +34°C° 0 mm 5 m/s 743 mmHg 22%
08:00 +36°C° 0 mm 6 m/s 743 mmHg 21%
09:00 +40°C° 0 mm 6 m/s 743 mmHg 19%
10:00 +43°C° 0 mm 7 m/s 743 mmHg 16%
11:00 +46°C° 0 mm 7 m/s 743 mmHg 13%
12:00 +49°C° 0 mm 8 m/s 743 mmHg 10%
13:00 +49°C° 0 mm 8 m/s 742 mmHg 9%
14:00 +50°C° 0 mm 8 m/s 742 mmHg 8%
15:00 +50°C° 0 mm 7 m/s 742 mmHg 8%
16:00 +49°C° 0 mm 7 m/s 741 mmHg 8%
17:00 +47°C° 0 mm 6 m/s 741 mmHg 9%
18:00 +46°C° 0 mm 5 m/s 741 mmHg 9%
19:00 +43°C° 0 mm 5 m/s 741 mmHg 10%
20:00 +41°C° 0 mm 5 m/s 742 mmHg 12%
21:00 +39°C° 0 mm 5 m/s 742 mmHg 13%
22:00 +37°C° 0 mm 5 m/s 742 mmHg 14%
23:00 +37°C° 0 mm 5 m/s 742 mmHg 15%

16 August, Duminică

Timp Temperatura Precipitaţii Vânt Presiune Umiditate
00:00 +36°C° 0 mm 5 m/s 742 mmHg 16%
01:00 +35°C° 0 mm 5 m/s 742 mmHg 17%
02:00 +34°C° 0 mm 5 m/s 742 mmHg 18%
03:00 +34°C° 0 mm 5 m/s 742 mmHg 19%
04:00 +33°C° 0 mm 5 m/s 742 mmHg 19%
05:00 +33°C° 0 mm 5 m/s 742 mmHg 19%
06:00 +32°C° 0 mm 5 m/s 743 mmHg 20%
07:00 +34°C° 0 mm 6 m/s 743 mmHg 18%
08:00 +36°C° 0 mm 6 m/s 743 mmHg 16%
09:00 +40°C° 0 mm 7 m/s 744 mmHg 14%
10:00 +43°C° 0 mm 7 m/s 743 mmHg 13%
11:00 +45°C° 0 mm 7 m/s 743 mmHg 11%
12:00 +49°C° 0 mm 7 m/s 743 mmHg 9%
13:00 +49°C° 0 mm 7 m/s 743 mmHg 8%
14:00 +50°C° 0 mm 7 m/s 743 mmHg 7%
15:00 +51°C° 0 mm 7 m/s 742 mmHg 6%
16:00 +49°C° 0 mm 6 m/s 742 mmHg 7%
17:00 +48°C° 0 mm 6 m/s 742 mmHg 7%
18:00 +47°C° 0 mm 5 m/s 742 mmHg 8%
19:00 +43°C° 0 mm 4 m/s 742 mmHg 10%
20:00 +41°C° 0 mm 4 m/s 743 mmHg 12%
21:00 +38°C° 0 mm 3 m/s 743 mmHg 14%
22:00 +37°C° 0 mm 3 m/s 743 mmHg 14%
23:00 +36°C° 0 mm 3 m/s 743 mmHg 15%
Arată mai mult